Location: Bosmont
(49.7318°N, 3.8587°E)
Time: 21:47:18
(UTC+00:00)

SL-16 R/B - Pass Details

Date: 08 February 2023
Orbit: 842 x 846 km, 71.0° (Epoch: 28 March)

Event Time Altitude Azimuth Distance (km) Brightness Sun altitude
Rises 19:04:42 0° 261° (W) 3,399 6.8 -21.9°
Reaches altitude 10° 19:07:52 10° 279° (W) 2,468 5.8 -22.4°
Maximum altitude 19:11:52 19° 324° (NW) 1,902 4.5 -23.1°
Drops below altitude 10° 19:15:52 10° 9° (N) 2,477 4.6 -23.7°
Enters shadow 19:17:38 - 20° (NNE) 2,966 4.9 -24.0°
